Terminal Aerodrome Forecast
Issued by NWS

Home | Current Version | Previous Version | Text Only | Print | Product List | Glossary Off
Versions: 1 2 3 4 5 6 7 8 9 10 11 12 13 14 15 16 17 18 19

000
FTUS41 KCLE 230500 RRA
TAFFDY
TAF
KFDY 230541Z 2306/2406 23006KT P6SM BKN080 OVC250
      TEMPO 2307/2309 5SM -SHRA OVC040
     FM230900 27006KT P6SM VCSH OVC040
     FM231200 31008KT P6SM OVC015
     FM231500 35010KT P6SM BKN025
     FM231900 01010KT P6SM BKN035
     FM232300 03008KT P6SM SCT050=

USA.gov is the U.S. government's official web portal to all federal, state and local government web resources and services.